Location: Palomar Mountain Lodge
(33.3110°N, 116.8495°W)
Time: 14:58:28
(UTC-07:00)

Resurs 01 Rocket - Pass Details

Date: 19 May 2017
Orbit: 634 x 645 km, 98.2° (Epoch: 24 May)

Event Time Altitude Azimuth Distance (km) Brightness Sun altitude
Rises 20:26:55 0° 173° (S) 2,934 4.7 -8.8°
Reaches altitude 10° 20:29:08 10° 176° (S) 2,027 3.9 -9.2°
Maximum altitude 20:33:31 65° 259° (W) 705 2.0 -10.0°
Drops below altitude 10° 20:37:55 10° 341° (NNW) 2,034 5.0 -10.8°
Sets 20:40:09 0° 344° (NNW) 2,946 5.9 -11.1°
